Miscellaneous Local Product
Issued by NWS North Platte, NE

Home | Current Version | Previous Version | Graphics & Text | Print | Product List | Glossary On
Versions: 1 2 3 4 5 6 7 8 9 10 11 12 13 14 15 16 17 18 19 20 21 22 23 24 25 26 27 28 29 30 31 32 33 34 35 36 37 38 39 40 41 42 43 44 45 46 47 48 49 50
000
AXUS43 KLBF 230710
MISLBF


WESTERN AND NORTH CENTRAL NEBRASKA HOURLY WEATHER ROUNDUP
NATIONAL WEATHER SERVICE NORTH PLATTE NE
200 AM CDT WED APR 23 2014

***STATIONS NOT REPORTING VARIABLES SUCH AS SKY/WEATHER OR
PRESSURE ARE PROVIDED BY THE NEBRASKA DEPARTMENT OF
ROADS...RAWS...AND APRS NETWORKS...AND ARE NOT UNDER
NATIONAL WEATHER SERVICE QUALITY CONTROL***

...OBSERVATIONS IN AND NEAR THE EASTERN PANHANDLE OF NEBRASKA...

CITY           SKY/WX    TMP DP  RH WIND       PRES   REMARKS
PINE RIDGE     CLOUDY    60  41  49 SE30G40   29.52F
CHADRON        PTCLDY    61  42  49 SE25G35   29.49F
ALLIANCE       CLOUDY    59  43  55 SE20      29.58F
SIDNEY         MOCLDY    57  41  55 S16       29.61F
WHITECLAY        N/A     58  40  51 SE24        N/A
CRESCENT LAKE    N/A     60  45  57 S16G25      N/A
LISCO            N/A     65  43  43 E21         N/A
BIG SPRINGS      N/A     61  48  62 S18         N/A
LEWELLEN         N/A     65  46  50 S17         N/A
$$

...OBSERVATIONS IN SOUTHWEST NEBRASKA AND FAR NORTHEAST COLORADO...

CITY           SKY/WX    TMP DP  RH WIND       PRES   REMARKS
WRAY           FAIR      60  47  61 S21G31    29.64F
HOLYOKE        FAIR      61  46  59 S23G32    29.63F
IMPERIAL       CLEAR     61  44  53 S24G32    29.65F
OGALLALA       MOCLDY    58  45  60 SE10G17   29.64F
NORTH PLATTE   CLOUDY    60  39  45 SE17G29   29.69F
MCCOOK         PTCLDY    61  36  39 S28G44    29.69F
LEXINGTON      MOCLDY    58  35  42 SE18      29.76F
PAXTON           N/A     62  48  60 SE21        N/A
SUTHERLAND       N/A     57  41  54 S16         N/A
GOTHENBURG       N/A     59  39  46 SE5G13      N/A
CALLAWAY         N/A     58  36  44 S23         N/A
$$

...OBSERVATIONS IN NORTH CENTRAL NEBRASKA...

CITY           SKY/WX    TMP DP  RH WIND       PRES   REMARKS
VALENTINE      CLOUDY    56  33  42 E12       29.71F
THEDFORD       PTCLDY    61  33  35 S22       29.69F
AINSWORTH      MOCLDY    58  32  37 S23G32    29.70F
O`NEILL        CLOUDY    56  29  35 SE16G26   29.79F
ORD            PTCLDY    56  31  38 SE13      29.80F
BROKEN BOW     MOCLDY    53  33  46 SE16      29.76F
BROWNLEE         N/A     60  31  33 SE15        N/A
SPRINGVIEW       N/A     58  34  41 E9          N/A
DUNNING          N/A     57  34  41 S18         N/A
BREWSTER         N/A     58  33  39 S16         N/A
ROSE             N/A     60  37  42 E26         N/A
NEWPORT          N/A     57  35  43 SE21        N/A
COMSTOCK         N/A     61  34  37 S18         N/A
CHAMBERS         N/A     55  31  39 S6G20       N/A
EWING            N/A     53  33  47 SE5G12      N/A
$$

...SOME WEATHER OBSERVATIONS FROM AROUND THE REGION...

CITY           SKY/WX    TMP DP  RH WIND       PRES   REMARKS
DENVER         CLOUDY    60  32  34 S18       29.65F
LARAMIE        PTCLDY    51  28  41 S17       29.69F
CHEYENNE       CLOUDY    51  35  54 SW8       29.66F
SCOTTSBLUFF    CLOUDY    57  44  62 E13       29.55F
RAPID CITY     CLOUDY    57  45  64 S12       29.53F
PIERRE         CLOUDY    58  33  39 SE28G43   29.60
WINNER         FAIR      60  32  34 SE15      29.74F
SIOUX FALLS    PTCLDY    53  34  48 SE17G25   29.92F
OMAHA          MOCLDY    57  34  41 SE10      29.97R
GRAND ISLAND   PTCLDY    56  33  42 SE21G33   29.83F
KANSAS CITY    PTCLDY    56  34  43 E10       30.00S
WICHITA        PTCLDY    59  34  39 SE14      29.90F
HAYS           CLOUDY    61  34  36 SE20G26   29.82F
LIBERAL        PTCLDY    64  46  52 E22       29.83F
GOODLAND       MOCLDY    59  46  62 S28G35    29.70F
$$



USA.gov is the U.S. government's official web portal to all federal, state and local government web resources and services.